This is the latest recevied weather packets stored in our database for station/object KE0FIN. If no packets are shown the sender has not sent any weather packets the latest 10 day(s).
| Time | Temp. | Humidity | Pressure | Rain* | Wind** | Luminosity | Snow |
|---|---|---|---|---|---|---|---|
| 1777741678 | 16.67° C | 36% | 1073.6 hPa | 0 mm | - | 43 W/m² | - |
| 1777741375 | 16.11° C | 38% | 1073.7 hPa | 0 mm | - | 42 W/m² | - |
| 1777741071 | 16.11° C | 34% | 1073.7 hPa | 0 mm | - | 42 W/m² | - |
| 1777740768 | 16.11° C | 35% | 1073.8 hPa | 0 mm | - | 42 W/m² | - |
| 1777740464 | 16.11° C | 34% | 1073.8 hPa | 0 mm | - | 51 W/m² | - |
| 1777740162 | 15.56° C | 37% | 1073.7 hPa | 0 mm | - | 42 W/m² | - |
| 1777739857 | 15.56° C | 34% | 1073.8 hPa | 0 mm | - | 48 W/m² | - |
| 1777739554 | 16.67° C | 35% | 1073.7 hPa | 0 mm | - | 52 W/m² | - |
| 1777739252 | 16.11° C | 35% | 1073.8 hPa | 0 mm | - | 65 W/m² | - |
| 1777738948 | 15.56° C | 35% | 1073.7 hPa | 0 mm | - | 173 W/m² | - |
| 1777738645 | 15.56° C | 35% | 1073.8 hPa | 0 mm | - | 70 W/m² | - |
| 1777738342 | 16.11° C | 33% | 1073.9 hPa | 0 mm | - | 40 W/m² | - |
| 1777738040 | 15° C | 36% | 1073.8 hPa | 0 mm | - | 40 W/m² | - |
| 1777737739 | 15° C | 34% | 1073.9 hPa | 0 mm | - | 41 W/m² | - |
| 1777737437 | 15.56° C | 35% | 1074.1 hPa | 0 mm | - | 41 W/m² | - |
| 1777737135 | 15.56° C | 34% | 1073.9 hPa | 0 mm | - | 43 W/m² | - |
| 1777736830 | 15.56° C | 34% | 1073.8 hPa | 0 mm | - | 150 W/m² | - |
| 1777736211 | 15.56° C | 35% | 1073.9 hPa | 0 mm | - | 69 W/m² | - |
| 1777735908 | 16.11° C | 32% | 1074.1 hPa | 0 mm | - | 292 W/m² | - |
| 1777735606 | 16.11° C | 35% | 1073.9 hPa | 0 mm | - | 111 W/m² | - |
| 1777735303 | 16.67° C | 34% | 1073.9 hPa | 0 mm | - | 191 W/m² | - |
| 1777735000 | 15.56° C | 35% | 1073.8 hPa | 0 mm | - | 385 W/m² | - |
| 1777734697 | 15.56° C | 34% | 1074.2 hPa | 0 mm | - | 373 W/m² | - |
| 1777734395 | 16.11° C | 35% | 1073.9 hPa | 0 mm | - | 359 W/m² | - |
| 1777734091 | 15.56° C | 37% | 1074.1 hPa | 0 mm | - | 345 W/m² | - |
* Rain latest hour (hover to see other rain measurements)
** Current wind speed in m/s (hover to see current wind gust speed)